This is the latest recevied weather packets stored in our database for station/object N3WXO-1. If no packets are shown the sender has not sent any weather packets the latest 10 day(s).
| Time | Temp. | Humidity | Pressure | Rain* | Wind** | Luminosity | Snow |
|---|---|---|---|---|---|---|---|
| 1777931120 | 23.33° C | 39% | 1008.3 hPa | 0 mm | - | 165 W/m² | - |
| 1777930833 | 23.33° C | 39% | 1008.2 hPa | 0 mm | - | 237 W/m² | - |
| 1777930526 | 23.33° C | 39% | 1008.3 hPa | 0 mm | - | 274 W/m² | - |
| 1777930222 | 23.33° C | 38% | 1008.3 hPa | 0 mm | - | 267 W/m² | - |
| 1777929919 | 23.33° C | 38% | 1008.3 hPa | 0 mm | - | 258 W/m² | - |
| 1777929634 | 23.33° C | 38% | 1008.3 hPa | 0 mm | - | 348 W/m² | - |
| 1777929330 | 23.33° C | 40% | 1008.4 hPa | 0 mm | - | 318 W/m² | - |
| 1777929027 | 23.33° C | 40% | 1008.6 hPa | 0 mm | - | 436 W/m² | - |
| 1777928725 | 23.33° C | 38% | 1008.7 hPa | 0 mm | - | 146 W/m² | - |
| 1777928435 | 23.33° C | 39% | 1008.7 hPa | 0 mm | - | 276 W/m² | - |
| 1777928130 | 23.33° C | 37% | 1008.6 hPa | 0 mm | - | 350 W/m² | - |
| 1777927822 | 23.33° C | 40% | 1008.7 hPa | 0 mm | - | 378 W/m² | - |
| 1777927535 | 23.33° C | 38% | 1008.7 hPa | 0 mm | - | 439 W/m² | - |
| 1777927225 | 22.78° C | 38% | 1008.8 hPa | 0 mm | - | 360 W/m² | - |
| 1777926920 | 22.78° C | 39% | 1008.8 hPa | 0 mm | - | 431 W/m² | - |
| 1777926631 | 22.78° C | 40% | 1008.9 hPa | 0 mm | - | 181 W/m² | - |
| 1777926332 | 22.78° C | 38% | 1008.9 hPa | 0 mm | - | 561 W/m² | - |
| 1777926026 | 22.78° C | 39% | 1008.9 hPa | 0 mm | - | 251 W/m² | - |
| 1777925738 | 22.22° C | 42% | 1008.9 hPa | 0 mm | - | 580 W/m² | - |
| 1777925430 | 22.22° C | 40% | 1009 hPa | 0 mm | - | 204 W/m² | - |
| 1777925133 | 22.22° C | 39% | 1009.1 hPa | 0 mm | - | 118 W/m² | - |
| 1777924824 | 22.78° C | 39% | 1009 hPa | 0 mm | - | 167 W/m² | - |
| 1777924533 | 23.33° C | 38% | 1009.1 hPa | 0 mm | - | 81 W/m² | - |
| 1777924228 | 23.33° C | 39% | 1009.2 hPa | 0 mm | - | 357 W/m² | - |
| 1777923927 | 23.33° C | 39% | 1009.2 hPa | 0 mm | - | 195 W/m² | - |
* Rain latest hour (hover to see other rain measurements)
** Current wind speed in m/s (hover to see current wind gust speed)